Location: Ravensburg
(47.7866°N, 9.6124°E)
Time: 23:16:07
(UTC+02:00)

AO-85 - Pass Details

Date: 16 March 2026
Orbit: 507 x 686 km, 64.8° (Epoch: 11 April)

Event Time Altitude Azimuth Distance (km) Brightness Sun altitude
Exits shadow 05:16:30 23° 254° (WSW) 1,152 ? -13.6°
Maximum altitude 05:18:33 43° 314° (NW) 741 ? -13.3°
Drops below altitude 10° 05:22:17 10° 27° (NNE) 1,742 ? -12.6°
Sets 05:24:31 0° 35° (NE) 2,623 ? -12.3°
